Preview of NWS' New Version of Forecast
This preview is not operational and should not be used for support decisions.

Regional Weather Roundup (RWR)

Issued by National Weather Service (NWS)

                            
000
ASUS43 KMKX 220420
RWRWI 

WISCONSIN REGIONAL WEATHER ROUNDUP
NATIONAL WEATHER SERVICE MILWAUKEE/SULLIVAN WI
1100 PM CDT SUN APR 21 2019

NOTE: "FAIR" INDICATES FEW OR NO CLOUDS BELOW 12,000 FEET WITH NO
SIGNIFICANT WEATHER AND/OR OBSTRUCTIONS TO VISIBILITY.

WIZ001-002-006>008-014>016-023>028-220500-
NORTHWEST WISCONSIN
  
CITY           SKY/WX    TMP DP  RH WIND       PRES   REMARKS
SUPERIOR ARPT  CLOUDY    37  36  96 NE9       30.11S WCI  30          
ASHLAND        RAIN      39  38  96 NE10      30.11F FOG     WCI  32  
HAYWARD        TSTM      41  39  93 N14G23    30.01F FOG              
SIREN          RAIN      41  39  92 NE10G17   30.01S                  
CUMBERLAND     CLOUDY    43  37  81 NE17      29.97S                  
RICE LAKE      CLOUDY    46  41  82 NE14G20   29.98R                  
CHETEK         FAIR      50  38  63 NE7       29.96R                  
LADYSMITH      CLOUDY    49  35  57 NE12G20   30.01R                  
EAU CLAIRE     FAIR      55  38  52 N7G21     29.91R                  
MENOMONIE      FAIR      50  37  60 N12G21    29.92R                  
NEW RICHMOND   FAIR      47  39  74 NE10      29.95R                  
OSCEOLA        FAIR      47  41  77 N13G21    29.99R                  
$$
 
WIZ003>005-009-010-017-018-220500-
NORTH CENTRAL WISCONSIN
  
CITY           SKY/WX    TMP DP  RH WIND       PRES   REMARKS
MANITOWISH WTR RAIN      39  39 100 NE13      30.04F WCI  32          
ARBOR VITAE    LGT RAIN  42  39  91 E9        30.03S                  
WOODRUFF       LGT RAIN  42  39  91 E9        30.03S                  
RHINELANDER    MOCLDY    47  30  51 NE12G22   30.02F                  
EAGLE RIVER    LGT RAIN  40  39  96 N8        30.06S WCI  34          
LAND O LAKES   RAIN      40  38  93 NE7       30.09R                  
PHILLIPS       CLOUDY    46  35  63 NE9       30.00R                  
TOMAHAWK       MOCLDY    46  31  56 NE8       30.00R                  
MEDFORD        CLOUDY    51  37  57 NE13G20   29.94R                  
MERRILL        CLOUDY    51  36  56 E8        29.98R                  
$$
 
WIZ029-030-035-036-043>047-220500-
CENTRAL WISCONSIN
  
CITY           SKY/WX    TMP DP  RH WIND       PRES   REMARKS
WAUSAU         NOT AVBL                                               
MOSINEE        FAIR      52  37  58 NE12      29.96S                  
MARSHFIELD     FAIR      58  45  62 E14       29.90R                  
STEVENS POINT  FAIR      53  38  57 E8        29.95R                  
WAUPACA        FAIR      55  41  58 N5        29.96R                  
WAUTOMA        FAIR      67  44  43 S8        29.93R                  
WISC RAPIDS    FAIR      64  42  44 SE6       29.90F                  
CAMP DOUGLAS   FAIR      71  45  39 S9        29.89F                  
$$
 
WIZ011>013-019>022-031-037>040-048>050-220500-
NORTHEAST WISCONSIN
  
CITY           SKY/WX    TMP DP  RH WIND       PRES   REMARKS
ANTIGO         FAIR      47  37  66 E13G20    30.00R                  
SHAWANO        FAIR      51  37  58 NE9       30.00R                  
OCONTO         FAIR      48  32  53 NE10      30.01R                  
STURGEON BAY   FAIR      44  32  62 E13       30.02S                  
GREEN BAY      FAIR      53  41  63 N6        29.97S                  
MANITOWOC      FAIR      54  35  48 S18       29.99F                  
APPLETON       FAIR      61  34  36 SE8       29.94F                  
CLINTONVILLE   FAIR      51  37  58 NE9       29.98R                  
OSHKOSH        FAIR      61  43  51 S10       29.94F                  
$$
 
WIZ032>034-041-042-053>061-220500-
SOUTHWEST WISCONSIN
  
CITY           SKY/WX    TMP DP  RH WIND       PRES   REMARKS
LA CROSSE      FAIR      73  44  35 S14       29.86R                  
SPARTA         FAIR      71  46  39 S8        29.89S                  
VIROQUA        FAIR      68  47  45 S9        29.92S                  
BOSCOBEL       FAIR      72  45  37 S6        29.92S                  
PRAIRIE DU CHI FAIR      72  40  32 SE9       29.90S                  
PLATTEVILLE    FAIR      64  47  54 SE12      29.95S                  
$$

WIZ056-057-062-063-064-067-068-220500-
SOUTH CENTRAL WISCONSIN
  
CITY           SKY/WX    TMP DP  RH WIND       PRES   REMARKS
REEDSBURG      FAIR      68  44  41 S10       29.93S                  
BARABOO/DELLS  FAIR      67  41  38 S17       29.93F                  
LONE ROCK      FAIR      69  44  40 S7        29.94R                  
MINERAL POINT  FAIR      64  45  48 SE12      29.96R                  
MADISON        MOCLDY    67  42  40 S13       29.97R                  
MIDDLETON      FAIR      68  42  38 S8        29.98R                  
WATERTOWN      FAIR      65  43  43 S14       29.98S                  
MONROE         FAIR      65  41  42 MISG      29.98R                  
JANESVILLE     FAIR      63  41  45 SE9       30.00R                  
$$
 
WIZ051-052-058>065-066-070>072-220500-
SOUTHEAST WISCONSIN
  
CITY           SKY/WX    TMP DP  RH WIND       PRES   REMARKS
MILWAUKEE      MOCLDY    60  36  40 S8        30.02S                  
WAUKESHA       FAIR      63  36  36 S9        30.02S                  
MILWAUKEE/TIMM FAIR      61  32  33 S7        30.02R                  
RACINE         FAIR      59  37  44 S13       30.04F                  
KENOSHA        FAIR      65  40  39 S9        30.03S                  
FOND DU LAC    FAIR      63  43  48 S12       29.96S                  
SHEBOYGAN      FAIR      56  35  45 S8        30.00S                  
WEST BEND      FAIR      61  36  39 CALM      30.00S                  
JUNEAU         FAIR      65  42  44 SE8       29.98S                  
$$

LSZ147-162-220500-
LAKE SUPERIOR
  
STATION/POSITION TIME  TEMP    WIND        PRES    WAVE
                       AIR SEA DIR/SP/G            HT/PER
                 (UTC) (F)     (DEG/KT/KT) (MB)    (FT/S)
$$
 
LMZ867-665-643>646-220500-
LAKE MICHIGAN
  
STATION/POSITION TIME  TEMP    WIND        PRES    WAVE
                       AIR SEA DIR/SP/G            HT/PER
                 (UTC) (F)     (DEG/KT/KT) (MB)    (FT/S)
NORTHPORT PIER   0340   39     310/  2/  3 1017.9R
KEWAUNEE LAKESHO 0354   42      90/  8/  9 1015.3F
SHEBOYGAN LAKESH 0400   45     180/ 14/ 15 1016.2F
MILWAUKEE LAKESH 0400   48                   N/A
KENOSHA   LAKESH 0400   52     180/ 18/ 21 1016.9
$$

TC  - TEMPERATURE IN CELSIUS
VSB - VISIBILITY IN STATUTE MILES
WCI - WIND CHILL INDEX
HX  - HEAT INDEX